This is the latest recevied weather packets stored in our database for station/object WB3EGK. If no packets are shown the sender has not sent any weather packets the latest 10 day(s).
| Time | Temp. | Humidity | Pressure | Rain* | Wind** | Luminosity | Snow |
|---|---|---|---|---|---|---|---|
| 1778114317 | 6.67° C | 1% | 1011.1 hPa | 0 mm | - | 0 W/m² | - |
| 1778114012 | 6.67° C | 1% | 1011.1 hPa | 0 mm | - | 0 W/m² | - |
| 1778113707 | 6.67° C | 1% | 1011.2 hPa | 0 mm | - | 0 W/m² | - |
| 1778113404 | 6.67° C | 1% | 1011.2 hPa | 0 mm | - | 0 W/m² | - |
| 1778113101 | 6.67° C | 1% | 1010.9 hPa | 0 mm | - | 0 W/m² | - |
| 1778112798 | 6.67° C | 1% | 1011.1 hPa | 0 mm | - | 0 W/m² | - |
| 1778112495 | 6.67° C | 1% | 1010.9 hPa | 0 mm | - | 1 W/m² | - |
| 1778112190 | 6.67° C | 1% | 1010.9 hPa | 0 mm | - | 1 W/m² | - |
| 1778111887 | 7.22° C | 1% | 1010.9 hPa | 0 mm | - | 4 W/m² | - |
| 1778111583 | 7.22° C | 1% | 1010.9 hPa | 0 mm | - | 8 W/m² | - |
| 1778111280 | 7.22° C | 1% | 1010.9 hPa | 0 mm | - | 12 W/m² | - |
| 1778110977 | 7.22° C | 1% | 1010.8 hPa | 0 mm | - | 12 W/m² | - |
| 1778110675 | 7.22° C | 1% | 1010.9 hPa | 0 mm | - | 12 W/m² | - |
| 1778110370 | 7.22° C | 1% | 1010.8 hPa | 0 mm | - | 16 W/m² | - |
| 1778110062 | 7.22° C | 1% | 1010.9 hPa | 0 mm | - | 20 W/m² | - |
| 1778109762 | 7.22° C | 1% | 1010.6 hPa | 0 mm | - | 23 W/m² | - |
| 1778109460 | 7.78° C | 1% | 1010.6 hPa | 0 mm | - | 37 W/m² | - |
| 1778109158 | 7.78° C | 1% | 1010.8 hPa | 0 mm | - | 39 W/m² | - |
| 1778108855 | 7.78° C | 1% | 1010.7 hPa | 0 mm | - | 26 W/m² | - |
| 1778108552 | 7.78° C | 1% | 1010.6 hPa | 0 mm | - | 19 W/m² | - |
| 1778108248 | 7.78° C | 1% | 1010.8 hPa | 0 mm | - | 27 W/m² | - |
| 1778107945 | 7.78° C | 1% | 1010.6 hPa | 0 mm | - | 32 W/m² | - |
| 1778107641 | 7.78° C | 1% | 1010.5 hPa | 0 mm | - | 33 W/m² | - |
| 1778107339 | 7.78° C | 1% | 1010.6 hPa | 0 mm | - | 36 W/m² | - |
| 1778107035 | 8.33° C | 1% | 1010.6 hPa | 0 mm | - | 35 W/m² | - |
* Rain latest hour (hover to see other rain measurements)
** Current wind speed in m/s (hover to see current wind gust speed)